Temperature
2 2 2 2 2 2 2 2 2 2 1 1 2 2 2 2 2 2 2 2 2 2 2 2 2 2 2 2 2 1 1 1 1 1 1 1 1 2 2 2 2 2 2
2 2 1 1 1 1 1 1 1 1 1 1 1 1 1 1 1 1 1 1 1 1 1 1 1 1 1 1 1 1 1 1 1 1 1 1 1 1 1 1 1 1 2
1 1 1 1 1 1 1 1 1 1 1 1 1 1 1 1 1 1 1 1 1 1 1 1 1 1 1 1 1 1 1 1 0 0 0 0 0 0 0 0 1 1 1
1 1 1 0 0 0 0 0 0 0 0 0 0 0 0 0 0 0 0 0 0 0 0 0 0 0 0 0 0 0 0 0 0 -0 -0 -0 -0 -0 -1 -0 -0 0 0
0 0 -0 -0 -0 -0 -0 -0 -0 -0 -0 -0 -0 -0 -0 -0 -1 -1 -0 -0 -0 -0 -0 -0 -0 -0 -0 -0 -0 -0 -0 -0 -0 -1 -1 -1 -1 -1 -1 -1 -1 -0 0
-0 -0 -0 -1 -1 -1 -1 -1 -1 -1 -1 -1 -1 -1 -1 -1 -1 -1 -1 -1 -1 -1 -1 -1 -1 -1 -1 -1 -1 -1 -1 -1 -1 -1 -1 -1 -1 -1 -1 -1 -1 -1 -1
-1 -1 -1 -1 -1 -1 -1 -1 -1 -1 -1 -1 -1 -1 -1 -1 -1 -1 -1 -1 -1 -1 -1 -1 -1 -1 -1 -1 -1 -1 -1 -1 -1 -1 -1 -1 -1 -1 -1 -1 -1 -1 -1
-1 -1 -1 -1 -1 -2 -1 -2 -2 -2 -2 -2 -2 -2 -2 -2 -2 -2 -2 -2 -2 -2 -2 -2 -2 -1 -1 -1 -1 -1 -1 -1 -1 -2 -2 -2 -2 -2 -2 -2 -2 -2 -2
-1 -2 -2 -2 -2 -2 -2 -2 -2 -2 -2 -2 -2 -2 -2 -2 -2 -2 -2 -2 -2 -2 -2 -2 -2 -2 -2 -2 -2 -2 -2 -2 -2 -2 -2 -2 -2 -2 -2 -2 -2 -2 -2
-2 -2 -2 -2 -2 -2 -2 -2 -3 -3 -3 -3 -3 -3 -3 -3 -3 -3 -3 -3 -3 -3 -3 -3 -3 -3 -3 -2 -2 -2 -2 -2 -2 -2 -2 -2 -2 -2 -2 -2 -2 -2 -2
-2 -2 -2 -3 -3 -3 -3 -3 -3 -3 -3 -3 -3 -3 -3 -3 -3 -3 -3 -3 -3 -3 -3 -3 -3 -3 -3 -3 -3 -3 -3 -3 -2 -2 -2 -2 -2 -2 -2 -2 -2 -2 -3
-2 -3 -3 -3 -3 -3 -3 -3 -3 -4 -4 -4 -4 -4 -4 -4 -4 -4 -4 -4 -4 -4 -4 -4 -4 -4 -4 -3 -3 -3 -3 -3 -2 -2 -2 -2 -2 -2 -2 -2 -2 -2 -2
-3 -3 -3 -3 -3 -4 -4 -4 -4 -4 -4 -4 -4 -4 -4 -4 -4 -4 -4 -4 -4 -4 -4 -4 -4 -4 -4 -4 -3 -3 -3 -3 -3 -3 -3 -3 -3 -3 -2 -2 -2 -2 -2
-3 -3 -3 -4 -4 -4 -4 -4 -4 -4 -5 -5 -5 -5 -5 -4 -4 -4 -5 -5 -4 -4 -4 -4 -4 -4 -4 -4 -4 -4 -3 -3 -3 -3 -3 -3 -3 -3 -3 -3 -3 -3 -3
-3 -3 -4 -4 -4 -4 -4 -5 -5 -5 -5 -5 -5 -5 -5 -5 -5 -5 -5 -5 -5 -5 -5 -4 -4 -4 -4 -4 -4 -4 -4 -4 -4 -4 -3 -3 -3 -3 -3 -3 -3 -3 -3
-4 -4 -4 -4 -4 -4 -5 -5 -5 -5 -5 -5 -5 -5 -5 -5 -5 -5 -5 -5 -5 -5 -5 -5 -4 -4 -4 -4 -4 -4 -4 -4 -4 -4 -4 -4 -4 -3 -3 -3 -3 -3 -3
-4 -4 -4 -4 -5 -5 -5 -5 -5 -5 -5 -5 -5 -5 -5 -5 -5 -5 -5 -5 -5 -5 -5 -5 -5 -5 -5 -5 -5 -5 -4 -4 -4 -4 -4 -4 -4 -4 -4 -4 -4 -4 -4
-4 -4 -5 -5 -5 -5 -5 -5 -5 -5 -5 -5 -5 -5 -5 -5 -5 -5 -5 -5 -5 -5 -5 -5 -5 -5 -5 -5 -5 -5 -5 -4 -4 -4 -4 -4 -4 -4 -4 -4 -4 -4 -3
-5 -5 -5 -5 -5 -5 -5 -6 -6 -6 -6 -6 -5 -5 -5 -5 -5 -5 -5 -5 -5 -5 -5 -5 -5 -5 -5 -5 -5 -5 -5 -5 -4 -4 -4 -4 -4 -4 -4 -4 -4 -3 -3
-5 -5 -5 -5 -5 -6 -6 -6 -6 -6 -6 -6 -6 -5 -5 -5 -5 -5 -5 -5 -5 -5 -5 -5 -5 -5 -4 -5 -4 -4 -4 -4 -4 -4 -4 -4 -4 -4 -4 -4 -3 -3 -3
-5 -5 -5 -6 -6 -6 -6 -6 -6 -6 -6 -6 -6 -6 -6 -6 -6 -5 -5 -5 -5 -5 -5 -5 -5 -4 -4 -4 -4 -4 -4 -4 -4 -4 -4 -4 -4 -4 -4 -4 -3 -3 -3
-5 -5 -6 -6 -6 -6 -6 -6 -6 -6 -6 -6 -6 -6 -6 -6 -5 -5 -5 -5 -5 -5 -5 -5 -5 -4 -4 -4 -4 -4 -4 -4 -4 -4 -4 -4 -4 -4 -4 -4 -4 -3 -3
-6 -6 -6 -6 -6 -6 -6 -6 -6 -6 -6 -6 -6 -6 -6 -6 -6 -5 -5 -5 -5 -5 -5 -5 -5 -4 -4 -4 -4 -4 -4 -4 -4 -4 -4 -4 -4 -4 -4 -4 -4 -3 -3
-6 -6 -6 -6 -6 -6 -6 -6 -6 -6 -6 -6 -6 -6 -6 -6 -6 -5 -5 -5 -5 -5 -5 -5 -5 -4 -4 -4 -4 -4 -4 -4 -4 -4 -4 -4 -4 -4 -4 -4 -4 -4 -4
-6 -6 -6 -6 -6 -6 -6 -6 -6 -6 -6 -6 -6 -6 -6 -6 -6 -5 -5 -5 -5 -5 -5 -5 -5 -4 -4 -4 -4 -4 -4 -4 -4 -4 -4 -4 -4 -3 -3 -4 -4 -3 -3
-6 -6 -6 -6 -6 -6 -6 -6 -6 -6 -6 -6 -6 -6 -6 -6 -6 -6 -6 -5 -5 -5 -5 -5 -5 -5 -4 -4 -4 -4 -4 -4 -4 -4 -4 -4 -3 -3 -3 -3 -3 -4 -4
Wind_Speed
2 2 2 2 1 1 2 2 2 2 2 3 3 3 3 3 3 3 3 3 3 4 4 4 4 4 3 3 3 4 4 4 7 6 4 4 4 4 6 6 8 7 8
1 1 1 1 1 1 2 2 2 2 2 3 3 3 3 3 2 3 3 3 3 4 4 4 5 4 4 3 3 4 4 4 6 8 5 4 4 4 5 5 6 7 7
1 1 1 1 1 2 2 2 2 2 2 2 2 2 3 3 2 3 3 3 4 4 4 4 4 4 4 4 4 4 4 4 4 5 5 4 4 4 4 5 5 5 7
1 1 1 2 2 2 2 1 1 2 2 2 2 2 2 3 3 3 3 3 3 4 4 4 4 4 4 4 4 4 3 3 3 4 4 4 4 3 3 4 5 4 5
1 1 2 2 2 1 1 1 1 1 2 2 2 2 3 2 3 3 3 3 3 3 3 3 3 5 5 5 4 3 4 4 3 4 4 4 4 3 3 3 5 5 5
1 1 2 2 2 2 1 1 1 1 2 2 2 2 3 3 4 5 3 2 2 3 3 3 4 5 6 6 7 6 5 5 4 4 4 5 5 4 4 4 4 5 5
1 1 1 2 2 2 2 1 2 2 2 2 2 2 3 4 5 5 4 3 2 2 3 3 4 4 5 4 5 7 6 6 7 5 5 6 6 5 5 5 4 5 6
1 1 1 2 2 2 1 1 2 1 1 2 2 3 3 4 5 5 5 3 2 3 3 3 4 4 4 4 3 4 4 5 6 5 5 5 6 5 5 5 5 4 4
2 2 2 2 2 1 1 1 1 1 1 2 2 2 3 4 5 5 4 2 2 3 4 3 4 4 6 5 3 3 4 4 4 5 6 6 7 6 4 2 3 3 5
2 2 2 1 1 1 1 1 1 1 1 2 2 2 3 3 5 5 4 1 2 3 3 4 6 5 6 5 3 3 4 4 3 4 4 5 4 4 5 3 3 4 4
2 1 1 1 1 1 1 1 1 1 1 2 2 3 2 3 4 5 5 2 2 3 3 3 4 6 7 6 4 3 4 4 2 2 2 3 3 2 3 3 2 3 4
1 1 1 1 1 0 0 0 0 0 1 1 2 2 2 3 4 5 5 4 3 2 3 3 4 7 7 6 4 4 5 4 2 2 2 2 2 3 3 3 3 2 3
1 0 1 1 0 0 0 0 1 1 1 1 1 2 3 3 3 5 6 6 6 3 3 5 6 6 6 5 4 5 3 2 1 2 2 2 2 2 2 2 3 2 3
1 1 0 0 0 1 0 0 0 1 1 2 2 2 3 3 3 3 3 3 4 4 3 4 6 6 4 3 3 3 2 2 2 2 2 2 2 2 2 2 3 3 2
1 1 0 0 0 0 1 1 1 2 2 2 2 2 3 3 4 6 4 3 2 2 2 1 2 2 3 3 2 2 2 2 2 2 2 2 2 2 2 2 2 2 2
1 1 1 1 0 0 0 2 3 2 3 3 4 4 4 5 6 6 6 5 5 4 2 1 2 2 2 3 3 2 2 2 2 2 2 2 2 2 2 2 2 2 2
2 2 1 1 1 0 0 0 2 3 3 4 4 5 4 5 6 6 6 5 4 3 1 2 2 2 3 3 2 2 2 3 2 2 2 2 2 1 2 2 2 2 2
2 2 2 1 1 1 1 1 1 1 2 3 4 5 5 6 6 6 5 4 3 3 2 2 3 3 3 3 2 2 2 3 2 2 2 2 1 1 1 1 1 2 2
2 2 1 1 1 1 1 1 1 1 2 2 3 4 5 6 6 6 5 2 2 2 2 2 3 3 3 3 3 2 2 2 2 2 2 2 1 1 1 1 1 2 2
2 2 2 1 1 1 0 0 1 1 1 2 2 3 4 4 3 4 3 2 2 2 3 3 3 3 3 2 2 2 2 2 2 2 2 1 1 1 1 1 1 1 1
2 2 1 1 1 1 1 1 1 1 1 2 3 4 4 2 2 3 3 3 2 3 3 3 3 3 2 2 2 2 2 2 2 1 1 1 1 1 1 1 1 1 0
2 2 1 1 1 1 1 1 1 1 1 2 2 3 5 3 2 3 3 3 3 3 3 2 2 2 2 2 2 2 2 2 2 1 1 1 1 1 1 0 0 0 0
2 2 1 1 1 1 0 1 1 1 1 2 2 3 3 3 3 3 3 3 3 3 2 2 2 2 2 2 2 2 2 3 2 2 1 1 1 1 1 0 0 0 0
2 2 2 1 1 1 0 0 1 1 1 2 2 2 3 3 3 4 4 3 3 3 2 2 2 2 3 3 2 2 2 3 2 2 2 1 1 1 0 0 1 1 1
2 2 2 1 1 1 1 1 1 1 1 2 2 2 3 3 3 3 3 3 3 3 3 3 2 2 3 3 3 2 2 2 2 1 1 1 1 1 1 1 1 1 1
2 2 2 1 1 1 1 1 1 1 1 2 2 2 2 2 3 3 3 3 3 3 3 3 3 4 4 3 3 3 3 2 1 1 1 2 1 1 1 1 1 1 1
Wind_Direction
256 251 251 246 238 236 245 256 260 270 267 268 271 273 270 266 268 262 254 255 250 257 256 252 256 255 250 254 254 252 251 248 266 281 279 281 284 292 302 298 298 293 291
268 270 272 255 246 245 259 268 268 268 267 269 271 273 276 275 268 260 267 267 257 259 260 258 260 260 256 254 251 253 254 250 258 276 284 285 283 284 293 297 302 297 290
262 289 310 279 257 252 259 272 290 286 288 284 276 274 279 279 273 261 258 266 267 262 264 264 264 258 261 263 259 257 260 266 259 268 282 288 288 292 300 301 300 299 296
227 238 275 275 256 249 260 285 295 291 292 289 285 281 279 279 273 264 262 267 276 279 271 265 267 262 259 262 262 256 258 265 269 273 282 290 289 289 292 301 305 299 298
223 243 263 275 283 275 268 275 279 287 294 290 291 295 289 276 266 266 265 271 277 287 287 277 272 279 280 275 271 261 255 256 264 271 278 291 291 300 294 294 295 304 300
228 257 277 292 301 291 277 278 278 279 286 295 294 296 295 286 292 296 294 282 288 287 291 297 289 281 286 289 286 281 270 259 257 261 272 277 281 286 292 292 296 304 305
250 271 285 291 299 294 301 307 286 283 289 295 301 300 292 286 295 301 308 306 290 283 283 288 295 297 297 286 290 296 291 283 271 261 262 269 277 281 283 286 287 287 287
251 265 277 286 295 302 301 291 286 291 288 291 299 304 305 300 306 312 322 320 297 285 275 273 278 288 290 288 287 297 289 280 276 272 262 268 271 272 264 269 276 285 291
252 262 265 267 285 292 287 286 291 307 310 301 303 302 304 306 313 320 331 322 306 298 294 291 292 284 294 302 292 289 297 297 304 297 291 291 288 286 284 290 294 297 297
248 259 264 264 263 266 263 281 291 295 299 313 314 306 295 299 317 327 334 311 303 304 303 298 297 297 301 308 286 270 285 294 308 318 317 321 321 315 309 286 271 283 295
248 255 267 277 258 237 251 282 295 332 333 320 313 308 304 314 324 328 326 314 291 294 298 301 300 311 310 312 306 281 284 299 302 305 311 316 325 326 320 314 294 273 277
214 238 269 280 256 192 125 342 3 12 350 323 322 325 325 319 325 323 325 325 323 295 293 295 303 317 318 317 310 304 313 320 313 315 312 313 314 312 313 320 328 318 295
163 229 294 311 315 18 148 122 6 339 307 307 314 319 321 320 314 321 322 321 323 308 294 306 313 321 321 316 317 326 328 319 308 304 302 301 295 289 303 322 334 346 354
167 200 266 296 337 357 4 8 326 294 293 305 310 309 307 306 302 300 295 300 309 309 306 314 321 325 327 325 331 331 323 302 297 288 293 298 308 317 323 319 314 324 344
164 169 205 212 240 335 347 291 276 265 270 281 282 279 284 288 297 311 311 297 293 293 315 320 328 335 341 343 343 335 324 319 313 305 302 309 316 319 324 325 325 336 346
163 170 204 214 235 269 340 350 345 324 323 315 307 304 295 301 312 316 318 320 320 326 337 315 317 319 315 318 321 320 315 307 300 297 295 291 298 306 318 329 334 341 345
182 202 214 212 221 248 262 328 334 344 344 333 330 326 320 320 323 326 328 331 335 345 337 303 296 294 294 295 296 298 300 298 295 291 291 292 293 293 303 320 337 342 341
187 209 209 208 217 229 243 263 282 309 326 333 336 340 341 338 337 339 342 348 345 351 316 297 293 292 286 282 283 284 291 299 303 300 293 285 278 281 296 317 327 331 331
189 204 197 198 213 225 246 268 285 298 306 314 323 336 348 344 345 349 352 347 321 315 308 299 293 291 286 277 277 281 283 288 290 295 295 295 285 277 291 310 319 332 341
193 201 184 180 191 213 244 264 288 296 306 311 316 319 328 338 341 342 343 330 312 301 297 293 293 290 287 281 279 284 283 284 286 290 294 294 292 276 263 283 291 305 331
185 190 181 164 189 217 231 240 267 285 301 305 303 311 329 333 329 323 321 315 307 299 292 291 292 292 287 285 277 272 276 277 272 278 283 292 295 299 289 282 277 283 321
172 172 176 184 207 230 254 263 275 289 298 302 308 321 341 347 330 324 319 314 311 304 297 292 291 289 283 279 275 268 271 272 267 262 267 285 292 278 274 260 236 308 55
166 164 163 176 205 231 326 338 305 293 299 309 315 326 336 333 325 322 320 319 320 320 319 310 302 301 305 297 282 261 255 258 255 237 238 262 288 282 252 222 211 201 122
165 165 167 174 175 187 206 260 280 288 297 304 316 322 322 319 320 320 322 323 325 329 335 330 310 298 305 312 308 293 272 267 264 238 216 215 240 263 242 198 215 196 183
160 160 168 178 177 188 213 240 266 289 302 308 314 315 315 317 321 323 326 329 331 337 340 339 329 324 320 315 312 305 296 294 291 261 215 192 199 226 212 198 196 178 170
157 162 169 175 181 193 209 227 253 283 296 305 310 306 307 315 321 326 330 338 343 341 341 342 338 335 327 320 313 317 315 309 300 265 189 168 176 201 204 193 182 171 158
Height
1448 1448 1447 1446 1446 1446 1446 1445 1445 1444 1444 1444 1443 1443 1442 1442 1442 1442 1442 1441 1441 1441 1441 1441 1441 1441 1440 1440 1439 1439 1438 1437 1434 1431 1431 1430 1428 1427 1425 1424 1422 1421 1420
1445 1445 1443 1443 1443 1443 1442 1442 1441 1440 1440 1440 1439 1439 1438 1438 1438 1438 1437 1437 1437 1437 1437 1436 1436 1436 1435 1435 1435 1434 1433 1432 1430 1427 1425 1425 1424 1422 1421 1419 1418 1416 1415
1442 1441 1440 1440 1439 1439 1438 1438 1437 1437 1436 1436 1435 1435 1434 1434 1434 1434 1434 1433 1433 1433 1433 1433 1432 1432 1431 1431 1430 1429 1428 1427 1426 1424 1421 1420 1419 1418 1416 1415 1414 1412 1411
1439 1438 1438 1437 1436 1436 1435 1434 1434 1433 1433 1432 1432 1431 1431 1431 1431 1431 1430 1430 1429 1429 1429 1429 1428 1428 1427 1427 1426 1425 1424 1423 1422 1420 1418 1416 1415 1414 1413 1411 1409 1408 1407
1436 1435 1435 1434 1433 1432 1431 1431 1430 1430 1430 1429 1429 1428 1428 1427 1427 1427 1427 1426 1425 1425 1425 1425 1424 1424 1423 1423 1422 1421 1420 1419 1418 1416 1414 1413 1411 1410 1409 1408 1406 1404 1403
1433 1432 1432 1431 1430 1429 1428 1428 1427 1427 1427 1426 1426 1425 1424 1424 1424 1424 1424 1423 1422 1422 1421 1421 1421 1420 1419 1419 1419 1418 1417 1416 1414 1413 1411 1410 1408 1407 1406 1405 1403 1401 1398
1430 1429 1429 1428 1427 1426 1426 1425 1425 1424 1424 1423 1423 1422 1421 1421 1421 1421 1420 1419 1419 1418 1418 1418 1417 1416 1416 1415 1414 1414 1413 1412 1411 1410 1408 1407 1406 1405 1403 1402 1400 1399 1396
1427 1427 1426 1425 1425 1424 1423 1423 1423 1422 1421 1421 1420 1419 1418 1418 1418 1418 1417 1416 1415 1415 1415 1414 1413 1413 1412 1412 1411 1409 1408 1408 1407 1406 1405 1404 1403 1402 1401 1400 1398 1395 1393
1425 1424 1423 1423 1422 1421 1421 1421 1420 1419 1419 1418 1417 1416 1416 1416 1416 1415 1414 1413 1412 1412 1411 1411 1410 1409 1409 1408 1407 1406 1404 1404 1403 1403 1402 1401 1400 1399 1398 1396 1394 1392 1389
1423 1422 1421 1421 1420 1419 1419 1418 1418 1417 1417 1416 1415 1414 1414 1413 1413 1412 1412 1411 1409 1409 1408 1407 1407 1406 1405 1405 1404 1403 1401 1400 1400 1399 1399 1398 1397 1395 1394 1393 1392 1390 1387
1420 1420 1419 1419 1418 1418 1417 1417 1416 1415 1415 1414 1413 1412 1412 1411 1410 1410 1410 1409 1407 1406 1405 1404 1403 1403 1402 1402 1401 1400 1399 1398 1397 1396 1395 1394 1393 1392 1391 1390 1389 1388 1386
1418 1418 1417 1417 1416 1416 1415 1415 1414 1414 1413 1412 1411 1410 1409 1409 1408 1407 1407 1406 1405 1404 1402 1401 1400 1400 1399 1399 1398 1397 1396 1396 1395 1393 1392 1391 1390 1389 1388 1387 1386 1384 1383
1416 1416 1415 1415 1415 1414 1414 1413 1412 1412 1411 1410 1409 1408 1407 1407 1406 1405 1404 1404 1403 1401 1400 1399 1398 1398 1397 1396 1395 1394 1394 1393 1392 1391 1390 1389 1388 1387 1386 1385 1383 1382 1380
1414 1414 1414 1413 1413 1413 1412 1412 1411 1410 1409 1409 1408 1406 1405 1405 1404 1403 1402 1401 1400 1399 1398 1397 1396 1395 1394 1393 1393 1392 1391 1391 1390 1389 1388 1387 1386 1385 1384 1383 1381 1380 1378
1412 1412 1412 1412 1411 1411 1411 1410 1409 1409 1408 1408 1406 1405 1404 1402 1402 1401 1400 1399 1397 1396 1395 1394 1393 1393 1392 1391 1390 1390 1389 1389 1388 1387 1386 1386 1385 1384 1383 1381 1380 1379 1377
1410 1410 1410 1410 1410 1409 1409 1408 1408 1407 1407 1406 1405 1404 1402 1401 1400 1399 1398 1397 1396 1395 1393 1392 1391 1390 1389 1389 1388 1388 1387 1387 1386 1385 1385 1384 1383 1382 1381 1380 1379 1378 1376
1408 1408 1408 1408 1408 1407 1407 1406 1405 1405 1405 1404 1403 1402 1401 1399 1398 1397 1395 1394 1393 1392 1391 1390 1389 1388 1388 1387 1387 1386 1385 1385 1384 1384 1383 1382 1381 1381 1380 1379 1378 1377 1376
1407 1407 1406 1406 1406 1406 1406 1405 1404 1403 1402 1401 1401 1400 1398 1397 1396 1395 1393 1392 1391 1390 1389 1388 1387 1387 1386 1385 1385 1384 1384 1383 1382 1382 1381 1381 1380 1380 1379 1378 1377 1377 1376
1405 1405 1405 1405 1405 1405 1404 1404 1403 1402 1401 1400 1399 1398 1397 1396 1395 1393 1392 1390 1389 1388 1387 1386 1385 1385 1384 1384 1383 1383 1382 1382 1381 1381 1380 1380 1379 1379 1378 1378 1377 1377 1376
1403 1403 1403 1403 1403 1403 1403 1402 1402 1401 1400 1399 1398 1397 1396 1394 1393 1391 1390 1389 1388 1386 1385 1384 1384 1383 1382 1382 1381 1381 1381 1380 1380 1379 1379 1379 1379 1378 1378 1377 1377 1377 1376
1401 1401 1402 1402 1402 1402 1401 1401 1400 1400 1399 1398 1397 1396 1395 1393 1391 1390 1389 1388 1386 1385 1384 1383 1382 1382 1381 1380 1380 1380 1379 1379 1378 1378 1378 1378 1378 1377 1377 1377 1377 1377 1376
1399 1399 1400 1400 1400 1400 1400 1400 1399 1399 1398 1397 1395 1395 1394 1392 1391 1389 1388 1386 1385 1384 1383 1382 1381 1380 1379 1379 1379 1378 1378 1378 1378 1378 1378 1377 1377 1377 1377 1377 1376 1376 1376
1397 1398 1398 1399 1399 1399 1399 1399 1398 1398 1397 1396 1395 1394 1393 1391 1390 1389 1387 1386 1384 1383 1382 1381 1380 1379 1378 1378 1378 1377 1377 1377 1377 1377 1377 1377 1376 1376 1376 1376 1376 1376 1376
1396 1396 1397 1397 1398 1398 1398 1397 1397 1396 1396 1395 1394 1393 1392 1391 1389 1388 1386 1385 1383 1382 1381 1380 1379 1378 1378 1377 1377 1377 1377 1377 1377 1376 1376 1376 1376 1376 1376 1376 1376 1376 1376
1394 1395 1396 1396 1396 1397 1396 1396 1396 1396 1395 1394 1393 1392 1391 1390 1389 1387 1386 1384 1383 1381 1380 1380 1379 1378 1378 1377 1377 1376 1376 1376 1376 1376 1376 1375 1375 1375 1375 1375 1376 1376 1376
1393 1394 1394 1395 1395 1395 1395 1395 1395 1395 1394 1394 1393 1392 1391 1390 1388 1387 1385 1384 1383 1381 1380 1380 1379 1378 1378 1377 1376 1376 1376 1376 1376 1375 1375 1375 1375 1375 1375 1375 1376 1376 1376